Location: Gesvres
(49.0440°N, 2.8518°E)
Time: 13:21:29
(UTC+00:00)

CZ-4C R/B - Visible Passes

Search period start: 25 September 2023 00:00
Search period end: 05 October 2023 00:00
Orbit: 452 x 603 km, 98.1° (Epoch: 24 September)

Date Brightness Start Highest point End Pass type
(mag) Time Alt. Az. Time Alt. Az. Time Alt. Az.
25 Sep 3.4 18:50:13 10° NNE 18:53:25 37° E 18:56:37 10° SSE visible
25 Sep 5.9 20:25:10 10° NNW 20:27:25 17° WNW 20:29:41 10° WSW visible
26 Sep 3.8 18:39:12 10° NE 18:42:10 27° E 18:45:08 10° SSE visible
26 Sep 5.5 20:13:39 10° NNW 20:16:20 22° WNW 20:19:00 10° WSW visible
27 Sep 4.2 18:28:16 10° NE 18:30:54 21° E 18:33:32 10° SE visible
27 Sep 5.0 20:02:13 10° N 20:05:12 28° WNW 20:08:11 10° SW visible
28 Sep 4.6 18:17:27 10° NE 18:19:35 16° E 18:21:43 10° SE visible
28 Sep 4.4 19:50:50 10° N 19:54:02 38° WNW 19:57:14 10° SW visible
29 Sep 6.1 05:03:11 10° ESE 05:05:48 19° ENE 05:08:22 10° NNE visible
29 Sep 4.9 18:06:58 10° ENE 18:08:15 12° E 18:09:31 10° ESE visible
29 Sep 3.7 19:39:30 10° N 19:42:49 52° WNW 19:46:11 10° SSW visible
30 Sep 6.3 04:52:37 10° E 04:54:40 14° ENE 04:56:41 10° NNE visible
30 Sep 3.1 19:28:10 10° N 19:31:35 74° WNW 19:35:02 10° SSW visible
01 Oct 6.6 04:42:25 10° ENE 04:43:32 11° ENE 04:44:38 10° NE visible
01 Oct 2.8 19:16:53 10° NNE 19:20:20 79° ESE 19:23:47 10° S visible
02 Oct 2.9 19:05:39 10° NNE 19:09:02 56° ESE 19:12:27 10° S visible
02 Oct 6.3 20:41:19 10° NNW 20:42:52 13° WNW 20:44:27 10° W visible
03 Oct 3.3 18:54:26 10° NNE 18:57:42 40° E 18:59:42 20° SSE visible
03 Oct 5.9 20:29:28 10° NNW 20:31:41 16° WNW 20:33:56 10° WSW visible
04 Oct 3.8 18:43:16 10° NE 18:46:20 29° E 18:46:32 29° ESE visible
04 Oct 5.5 20:17:48 10° NNW 20:20:28 21° WNW 20:21:41 18° W visible
